GW6594 Weather Reports


time (UTC)temp
C
wind
direction
speed
KPH
gust
KPH
rain 1hr
cm
rain 24hr
cm
rain mn
cm
humidity
%
barometer
mb
20260902071601 12 49 11.3 16.1 0.00 0.00 0.00 85 1022.3
20260902070107 12 47 11.3 16.1 0.00 0.00 0.00 85 1022.1
20260902064606 12 53 9.7 17.7 0.00 0.00 0.00 86 1022.0
20260902063113 12 47 9.7 16.1 0.00 0.00 0.00 88 1021.9
20260902061625 12 49 9.7 14.5 0.00 0.00 0.00 89 1022.0
20260902060110 12 63 9.7 12.9 0.00 0.00 0.00 89 1021.8
20260902054601 12 68 8.0 14.5 0.00 0.00 0.00 90 1021.9
20260902053107 12 49 8.0 11.3 0.00 0.00 0.00 89 1021.8
20260902051616 12 57 8.0 16.1 0.00 0.00 0.00 89 1021.7
20260902050111 13 55 9.7 17.7 0.00 0.00 0.00 89 1021.6
20260902044636 13 44 8.0 14.5 0.00 0.00 0.00 89 1021.4
20260902043106 13 40 8.0 12.9 0.00 0.00 0.00 90 1021.1
20260902041606 13 52 8.0 14.5 0.00 0.00 0.00 90 1021.1
20260902040111 13 52 8.0 14.5 0.00 0.00 0.00 88 1021.0
20260902034604 14 51 8.0 11.3 0.00 0.00 0.00 89 1020.9
20260902033110 14 74 1.6 6.4 0.00 0.00 0.00 89 1020.8
20260902031619 15 32 3.2 6.4 0.00 0.00 0.00 90 1020.7
20260902030109 14 187 0.0 3.2 0.00 0.00 0.00 90 1020.6
20260902024605 14 187 1.6 4.8 0.00 0.00 0.00 90 1020.6
20260902023108 13 170 4.8 8.0 0.00 0.00 0.00 87 1020.6
20260902021605 13 166 4.8 8.0 0.00 0.00 0.00 86 1020.5
20260902020108 13 155 1.6 4.8 0.00 0.00 0.00 85 1020.6
20260902014603 13 144 3.2 6.4 0.00 0.00 0.00 84 1020.5
20260902013112 13 109 4.8 6.4 0.00 0.00 0.00 85 1020.5
20260902011602 14 82 4.8 6.4 0.00 0.00 0.00 85 1020.5
20260902010106 13 98 4.8 9.7 0.00 0.00 0.00 85 1020.4
20260902004609 13 83 4.8 9.7 0.00 0.00 0.00 85 1020.3
20260902003110 14 80 4.8 8.0 0.00 0.00 0.00 85 1020.3
20260902001613 15 76 4.8 6.4 0.00 0.00 0.00 82 1020.3
20260902000107 15 78 4.8 6.4 0.00 0.00 0.00 78 1020.2
20260901234610 16 138 3.2 6.4 0.00 0.00 0.00 75 1020.2
20260901233134 17 145 1.6 3.2 0.00 0.00 0.00 72 1020.2
20260901231616 17 145 1.6 4.8 0.00 0.00 0.00 71 1020.1
20260901230111 18 146 3.2 6.4 0.00 0.00 0.00 68 1020.1
20260901224604 18 115 1.6 8.0 0.00 0.00 0.00 68 1019.8
20260901223104 18 124 6.4 12.9 0.00 0.00 0.00 66 1019.8
20260901221613 19 132 11.3 16.1 0.00 0.00 0.00 64 1019.8
20260901220107 19 121 9.7 16.1 0.00 0.00 0.00 64 1019.7
20260901214607 19 125 11.3 22.5 0.00 0.00 0.00 63 1019.7
20260901213107 20 112 16.1 22.5 0.00 0.00 0.00 62 1019.5
20260901211603 20 121 16.1 22.5 0.00 0.00 0.00 62 1019.4
20260901210105 20 126 17.7 25.7 0.00 0.00 0.00 61 1019.2
20260901204607 21 100 19.3 24.1 0.00 0.00 0.00 58 1019.1
20260901203108 21 104 17.7 24.1 0.00 0.00 0.00 56 1019.1
20260901201605 22 100 17.7 25.7 0.00 0.00 0.00 54 1018.9
20260901200107 22 138 19.3 25.7 0.00 0.00 0.00 54 1019.1
20260901194609 22 100 19.3 25.7 0.00 0.00 0.00 54 1019.1
20260901193106 22 127 14.5 24.1 0.00 0.00 0.00 54 1019.1
20260901191604 22 121 17.7 22.5 0.00 0.00 0.00 54 1019.1
20260901190105 22 101 17.7 25.7 0.00 0.00 0.00 55 1019.2
20260901184608 22 113 19.3 27.4 0.00 0.00 0.00 55 1019.2
20260901183123 22 119 19.3 25.7 0.00 0.00 0.00 56 1019.2
20260901181605 22 89 17.7 27.4 0.00 0.00 0.00 56 1019.2
20260901180108 22 115 19.3 27.4 0.00 0.00 0.00 56 1019.1
20260901174607 22 129 16.1 27.4 0.00 0.00 0.00 57 1018.9
20260901173155 22 128 16.1 25.7 0.00 0.00 0.00 57 1019.1
20260901171606 23 123 16.1 22.5 0.00 0.00 0.00 60 1019.1
20260901170108 22 128 8.0 19.3 0.00 0.00 0.00 65 1019.1
20260901164610 22 121 8.0 20.9 0.00 0.00 0.00 65 1018.9
20260901163119 22 66 12.9 19.3 0.00 0.00 0.00 63 1018.9
20260901161609 22 87 11.3 19.3 0.00 0.00 0.00 61 1018.9
20260901160108 23 57 6.4 17.7 0.00 0.00 0.00 60 1018.9
20260901154607 22 88 9.7 14.5 0.00 0.00 0.00 66 1019.1
20260901153106 21 82 9.7 14.5 0.00 0.00 0.00 66 1019.2
20260901151610 22 70 6.4 12.9 0.00 0.00 0.00 63 1019.2
20260901150107 22 62 4.8 16.1 0.00 0.00 0.00 62 1019.2
20260901144611 21 121 3.2 11.3 0.00 0.00 0.00 63 1019.2
20260901143110 21 66 4.8 8.0 0.00 0.00 0.00 65 1019.2
20260901141617 21 48 4.8 9.7 0.00 0.00 0.00 66 1019.3
20260901140107 20 170 4.8 9.7 0.00 0.00 0.00 68 1019.2
20260901134606 20 123 3.2 14.5 0.00 0.00 0.00 70 1019.2
20260901133106 19 119 8.0 12.9 0.00 0.00 0.00 69 1019.2
20260901131609 19 67 8.0 14.5 0.00 0.00 0.00 68 1018.8
20260901130110 18 59 4.8 12.9 0.00 0.00 0.00 71 1018.8
20260901124610 18 86 3.2 9.7 0.00 0.00 0.00 72 1018.9
20260901123110 17 55 8.0 14.5 0.00 0.00 0.00 74 1018.5
20260901121611 16 32 4.8 12.9 0.00 0.00 0.00 78 1018.7
20260901120111 15 46 6.4 14.5 0.00 0.00 0.00 79 1018.6
20260901114605 14 27 6.4 12.9 0.00 0.00 0.00 82 1018.4
20260901113106 13 25 8.0 14.5 0.00 0.00 0.00 82 1018.3
20260901111607 13 41 9.7 17.7 0.00 0.00 0.00 82 1018.2
20260901110108 14 33 12.9 17.7 0.00 0.00 0.00 81 1018.1
20260901104605 14 49 11.3 17.7 0.00 0.00 0.00 83 1017.9
20260901103105 13 46 9.7 14.5 0.00 0.00 0.00 86 1017.7
20260901101612 13 32 8.0 12.9 0.00 0.00 0.00 86 1017.9
20260901100111 13 5 6.4 8.0 0.00 0.00 0.00 85 1017.8
20260901094606 13 352 4.8 8.0 0.00 0.00 0.00 85 1017.8
20260901093107 14 327 4.8 8.0 0.00 0.00 0.00 86 1017.8
20260901091607 13 302 6.4 12.9 0.00 0.00 0.00 84 1017.9
20260901090105 14 315 8.0 12.9 0.00 0.00 0.00 81 1018.0
20260901084626 14 309 9.7 12.9 0.00 0.00 0.00 80 1017.9
20260901083107 14 302 8.0 12.9 0.00 0.00 0.00 82 1017.9
20260901081608 13 302 8.0 12.9 0.00 0.00 0.00 82 1017.9
20260901080114 13 280 6.4 12.9 0.00 0.00 0.00 81 1017.9
20260901074633 13 265 8.0 12.9 0.00 0.00 0.00 81 1018.1
20260901073105 13 306 8.0 12.9 0.00 0.00 0.00 81 1018.0